Hit Tracker is now ESPN Home Run Tracker! Hit Tracker founder Greg Rybarczyk is now collaborating with the ESPN Stats & Information Group to continue tracking all MLB home runs, and helping baseball fans know "How Far It Really Went!™" Please credit any information on this site to ESPN Stats & Information Group. For more information and analysis on home runs, please contact founder Greg Rybarczyk. E-Mail ESPN Home Run Tracker
Main Page | Ballparks | Park Overlays | Glossary | Highlight Homers | Feedback | Bio | 3 Types of HR's | AAA Home Run Derby Last Updated: September 25, 2016, 8:50 pm PST
If you want to know "How Far It Really Went!", then you've come to the right place! Welcome to the ESPN Home Run Tracker, where you can find accurate, transparently verifiable distances for every home run hit in MLB games. Please also check out the ESPN MLB Scoreboard throughout the 2016 season! Contact us at grybar@hittrackeronline.com.
Season:
Ballpark detail for Rogers Centre
Ballpark # of Home Runs HR per game Avg.
True
Distance
Avg.
Speed
Off
Bat
Avg.
Std.
Dist.
Rogers Centre 197 2.56 404.3 105.1 403.2

Scatter Plot of Home Runs Rogers Centre
 Overlay Ballpark:
Without range rings   With range rings

2016 Season Home Runs for Rogers Centre
Click headers to sort
Date Video Path Hitter Hitter
Team
Pitcher Pitcher
Team
INN Ballpark Type/
Luck
True
Dist.
Speed
Off
Bat
Elev.
Angle
Horiz.
Angle
Apex Impact Due To: Std.
Dist.
#
Parks
Wind Temp. Alt. ^
04/24/16 Video View Coghlan, Chris OAK Chavez, Jesse TOR 7 Rogers Centr... PL 363 101.5 37.7 65.0 135 0 0 2 362 29
06/14/16 Video View Carrera, Ezequiel TOR Eflin, Zach PHI 3 Rogers Centr... PL 348 100.9 40.1 63.1 145 7 -3 2 342 22
06/21/16 Video View Tomas, Yasmany ARI Estrada, Marco TOR 4 Rogers Centr... ND 397 107.7 35.6 109.5 147 -9 2 2 402 30
04/14/16 Video View Tulowitzki, Troy TOR Eovaldi, Nathan NYY 6 Rogers Centr... ND 407 111.7 25.4 124.3 71 0 0 1 407 30
04/08/16 Video View Donaldson, Josh TOR Kelly, Joe BOS 4 Rogers Centr... PL 387 105.1 26.6 118.1 73 0 0 1 387 30
04/09/16 Video View Bautista, Jose TOR Porcello, Rick BOS 1 Rogers Centr... PL 366 100.2 27.1 116.0 70 0 0 1 366 23
04/10/16 Video View Donaldson, Josh TOR Ramirez, Noe BOS 8 Rogers Centr... ND 444 111.3 26.0 104.8 93 0 0 1 444 30
04/22/16 Video View Coghlan, Chris OAK Sanchez, Aaron TOR 2 Rogers Centr... JE 398 101.5 27.2 102.4 85 0 0 1 398 28
04/22/16 Video View Barney, Darwin TOR Gray, Sonny OAK 3 Rogers Centr... ND 403 105.7 29.6 116.3 94 0 0 1 402 30
04/23/16 Video View Canha, Mark OAK Happ, J.A. TOR 1 Rogers Centr... JE 374 97.9 29.6 72.3 87 0 0 1 374 21
04/23/16 Video View Tulowitzki, Troy TOR Bassitt, Chris OAK 5 Rogers Centr... PL 422 103.7 29.1 96.7 107 0 0 1 421 29
05/02/16 Video View Nicholas, Brett TEX Dickey, R.A. TOR 3 Rogers Centr... JE 411 101.4 31.1 88.9 116 0 0 1 410 22
05/03/16 Video View Odor, Rougned TEX Estrada, Marco TOR 1 Rogers Centr... PL 348 95.3 35.2 61.9 102 0 0 1 347 21
05/03/16 Video View Smoak, Justin TOR Tolleson, Shawn TEX 9 Rogers Centr... JE 399 100.4 30.6 100.5 105 0 0 1 398 26
05/04/16 Video View Encarnacion, Edwin TOR Lewis, Colby TEX 6 Rogers Centr... ND 386 105.1 35.9 117.0 131 0 0 1 385 30
05/05/16 Video View Encarnacion, Edwin TOR Holland, Derek TEX 3 Rogers Centr... PL 418 104.6 31.4 101.7 120 0 0 1 417 30
05/06/16 Video View Bautista, Jose TOR Maeda, Kenta LAD 6 Rogers Centr... ND 454 114.4 25.1 106.6 90 0 0 1 453 30
05/06/16 Video View Pillar, Kevin TOR Blanton, Joe LAD 8 Rogers Centr... JE 390 112.0 20.6 110.6 53 0 0 1 390 29
05/07/16 Video View Pederson, Joc LAD Dickey, R.A. TOR 2 Rogers Centr... PL 449 108.5 25.0 90.5 95 0 0 1 448 30
05/07/16 Video View Turner, Justin LAD Girodo, Chad TOR 8 Rogers Centr... ND 389 105.0 35.4 115.6 130 0 -1 1 388 30
05/08/16 Video View Pederson, Joc LAD Estrada, Marco TOR 7 Rogers Centr... PL 397 101.9 32.7 75.0 118 0 -1 1 397 30
05/16/16 Video View Pearce, Steve TB Happ, J.A. TOR 1 Rogers Centr... PL 389 101.4 28.5 109.0 86 0 0 1 389 30
05/16/16 Video View Beckham, Tim TB Happ, J.A. TOR 2 Rogers Centr... JE 410 101.2 27.5 86.3 94 0 0 1 409 14
05/16/16 Video View Jennings, Desmond TB Chavez, Jesse TOR 9 Rogers Centr... ND 407 106.1 32.7 113.1 118 0 -1 1 406 30
05/17/16 Video View Motter, Taylor TB Storen, Drew TOR 9 Rogers Centr... PL 378 98.8 29.9 109.2 90 0 0 1 378 26
05/18/16 Video View Morrison, Logan TB Dickey, R.A. TOR 4 Rogers Centr... PL 444 110.0 23.7 82.9 85 0 0 1 444 30
05/18/16 Video View Jennings, Desmond TB Dickey, R.A. TOR 4 Rogers Centr... ND 397 111.7 23.0 119.6 61 0 0 1 396 30
05/18/16 Video View Saunders, Michael TOR Odorizzi, Jake TB 5 Rogers Centr... ND 415 108.9 26.0 67.3 80 0 0 1 414 30
05/18/16 Video View Kiermaier, Kevin TB Dickey, R.A. TOR 6 Rogers Centr... ND 411 106.3 31.2 67.6 110 0 0 1 411 30
05/27/16 Video View Smoak, Justin TOR Kelly, Joe BOS 5 Rogers Centr... ND 423 108.3 29.8 67.1 104 1 -1 1 421 30
05/27/16 Video View Donaldson, Josh TOR Uehara, Koji BOS 8 Rogers Centr... PL 341 94.7 36.7 61.8 108 0 -1 1 341 17
05/28/16 Video View Shaw, Travis BOS Stroman, Marcus TOR 6 Rogers Centr... PL 372 99.4 35.1 68.2 118 -2 2 1 371 28
05/29/16 Video View Bautista, Jose TOR Price, David BOS 5 Rogers Centr... PL 360 98.4 36.4 120.6 113 1 3 1 355 29
06/09/16 Video View Alvarez, Pedro BAL Stroman, Marcus TOR 6 Rogers Centr... JE 378 98.1 30.7 106.2 96 0 -1 1 379 24
06/10/16 Video View Saunders, Michael TOR Gausman, Kevin BAL 4 Rogers Centr... PL 387 102.0 30.2 64.8 91 0 0 1 386 30
06/10/16 Video View Schoop, Jonathan BAL Estrada, Marco TOR 5 Rogers Centr... PL 406 102.2 31.0 102.4 110 1 0 1 405 30
06/10/16 Video View Davis, Chris BAL Estrada, Marco TOR 6 Rogers Centr... PL 412 104.7 26.9 75.7 87 0 0 1 411 29
06/11/16 Video View Rickard, Joey BAL Happ, J.A. TOR 4 Rogers Centr... JE 365 102.0 25.5 118.6 63 0 0 1 364 19
06/11/16 Video View Davis, Chris BAL Happ, J.A. TOR 4 Rogers Centr... JE 353 100.5 26.1 56.1 62 0 0 1 352 23
06/11/16 Video View Machado, Manny BAL Happ, J.A. TOR 6 Rogers Centr... ND 405 104.3 30.8 110.1 105 -2 1 1 404 30
06/11/16 Video View Encarnacion, Edwin TOR McFarland, T.J. BAL 6 Rogers Centr... ND 443 110.9 28.4 107.5 106 -3 3 1 442 30
06/11/16 Video View Encarnacion, Edwin TOR Duensing, Brian BAL 8 Rogers Centr... JE 384 103.5 24.1 107.8 65 0 1 1 383 22
06/12/16 Video View Pillar, Kevin TOR Worley, Vance BAL 3 Rogers Centr... ND 425 111.2 29.9 118.1 104 -3 -1 1 427 30
06/12/16 Video View Alvarez, Pedro BAL Sanchez, Aaron TOR 4 Rogers Centr... ND 458 109.9 27.9 88.7 119 -3 -1 1 460 30
06/12/16 Video View Wieters, Matt BAL Sanchez, Aaron TOR 5 Rogers Centr... PL 421 106.8 26.9 105.1 91 0 -1 1 421 30
06/12/16 Video View Jones, Adam BAL Venditte, Pat TOR 8 Rogers Centr... PL 407 103.7 27.4 104.5 89 0 0 1 407 30
06/21/16 Video View O'Brien, Peter ARI Chavez, Jesse TOR 7 Rogers Centr... PL 359 97.5 32.9 57.5 91 0 1 1 357 29
06/22/16 Video View Martin, Russell TOR Ray, Robbie ARI 1 Rogers Centr... PL 423 105.1 27.0 100.1 93 0 1 1 422 30
06/22/16 Video View Tulowitzki, Troy TOR Godley, Zack ARI 6 Rogers Centr... PL 413 104.0 27.3 103.0 90 0 1 1 411 30
06/22/16 Video View Encarnacion, Edwin TOR Ray, Robbie ARI 6 Rogers Centr... PL 410 103.3 32.6 106.9 117 6 2 1 401 30
06/30/16 Video View Davis, Rajai CLE Dickey, R.A. TOR 2 Rogers Centr... ND 416 107.1 28.2 112.2 91 0 1 1 413 30
06/30/16 Video View Kipnis, Jason CLE Dickey, R.A. TOR 3 Rogers Centr... PL 420 106.7 25.2 76.8 81 0 1 1 418 29
07/02/16 Video View Davis, Rajai CLE Estrada, Marco TOR 1 Rogers Centr... ND 419 118.1 22.1 122.2 61 0 0 1 418 30
07/02/16 Video View Encarnacion, Edwin TOR McAllister, Zach CLE 1 Rogers Centr... JE 415 103.5 25.5 96.7 84 0 1 1 414 24
07/02/16 Video View Santana, Carlos CLE Estrada, Marco TOR 4 Rogers Centr... ND 393 112.1 22.6 58.3 58 0 1 1 392 30
07/02/16 Video View Donaldson, Josh TOR Otero, Dan CLE 7 Rogers Centr... PL 424 103.8 26.8 93.9 95 0 1 1 423 28
07/03/16 Video View Tulowitzki, Troy TOR Gorzelanny, Tom CLE 6 Rogers Centr... ND 421 109.3 29.0 117.0 95 0 1 1 419 30
07/03/16 Video View Smoak, Justin TOR Gimenez, Chris CLE 8 Rogers Centr... ND 413 107.9 28.5 63.0 89 0 1 1 411 30
07/04/16 Video View Morales, Kendrys KC Sanchez, Aaron TOR 7 Rogers Centr... PL 417 103.2 29.9 81.8 111 0 -1 1 417 28
07/04/16 Video View Hosmer, Eric KC Cecil, Brett TOR 9 Rogers Centr... PL 345 94.8 36.7 118.3 108 4 0 1 341 10
07/05/16 Video View Donaldson, Josh TOR Young, Chris KC 1 Rogers Centr... PL 418 102.2 31.5 89.7 120 1 2 1 414 24
07/05/16 Video View Tulowitzki, Troy TOR Young, Chris KC 3 Rogers Centr... ND 410 107.4 28.1 116.3 86 0 1 1 408 30
07/07/16 Video View Upton, Justin DET Hutchison, Drew TOR 2 Rogers Centr... JE 419 103.2 25.7 87.2 86 0 1 1 417 24
07/08/16 Video View Encarnacion, Edwin TOR Parnell, Bobby DET 7 Rogers Centr... ND 462 113.9 21.0 90.7 78 0 0 1 462 30
07/09/16 Video View Travis, Devon TOR Rondon, Bruce DET 7 Rogers Centr... PL 395 101.5 28.9 107.3 90 0 1 1 393 30
07/09/16 Video View Martinez, Victor DET Grilli, Jason TOR 8 Rogers Centr... PL 441 106.5 27.5 85.0 104 0 2 1 438 29
07/10/16 Video View Donaldson, Josh TOR Sanchez, Anibal DET 4 Rogers Centr... PL 411 104.9 33.9 102.6 135 -3 3 1 408 30
07/22/16 Video View Saunders, Michael TOR Paxton, James SEA 2 Rogers Centr... PL 393 100.4 33.8 102.6 122 -3 5 1 390 26
07/23/16 Video View Seager, Kyle SEA Chavez, Jesse TOR 6 Rogers Centr... JE 413 102.5 26.0 95.2 85 0 2 1 412 21
07/23/16 Video View Saunders, Michael TOR Iwakuma, Hisashi SEA 6 Rogers Centr... PL 388 99.5 30.6 107.2 96 0 3 1 385 29
07/23/16 Video View Saunders, Michael TOR LeBlanc, Wade SEA 8 Rogers Centr... PL 401 103.6 28.2 110.5 86 0 2 1 398 30
07/25/16 Video View Dickerson, Alex SD Schultz, Bo TOR 9 Rogers Centr... ND 452 114.8 30.0 65.1 115 0 3 1 449 30
07/26/16 Video View Dickerson, Alex SD Stroman, Marcus TOR 6 Rogers Centr... ND 467 113.5 26.0 79.1 102 1 2 1 465 30
07/26/16 Video View Smoak, Justin TOR Cashner, Andrew SD 5 Rogers Centr... PL 420 102.9 30.7 96.3 115 2 2 1 416 27
07/27/16 Video View Wallace, Brett SD Dickey, R.A. TOR 5 Rogers Centr... PL 380 106.8 23.1 64.8 58 0 1 1 378 26
07/29/16 Video View Bautista, Jose TOR Gausman, Kevin BAL 1 Rogers Centr... ND 444 109.8 25.5 100.6 92 0 1 1 443 30
07/29/16 Video View Encarnacion, Edwin TOR Gausman, Kevin BAL 1 Rogers Centr... ND 416 110.7 25.9 118.0 77 0 1 1 414 30
07/29/16 Video View Tulowitzki, Troy TOR Gausman, Kevin BAL 1 Rogers Centr... PL 406 102.9 29.8 105.4 101 -1 1 1 405 30
07/29/16 Video View Machado, Manny BAL Grilli, Jason TOR 8 Rogers Centr... JE 388 99.7 29.2 74.3 90 0 1 1 387 26
07/30/16 Video View Alvarez, Pedro BAL Happ, J.A. TOR 2 Rogers Centr... PL 402 103.5 29.3 70.5 95 0 1 1 401 30
07/31/16 Video View Tulowitzki, Troy TOR Tillman, Chris BAL 4 Rogers Centr... ND 428 111.6 30.6 120.6 106 0 0 1 427 30
07/31/16 Video View Jones, Adam BAL Chavez, Jesse TOR 12 Rogers Centr... PL 424 104.9 29.6 100.0 111 0 0 1 423 30
08/08/16 Video View Encarnacion, Edwin TOR Odorizzi, Jake TB 1 Rogers Centr... PL 388 100.2 34.2 105.6 120 1 3 1 384 27
08/09/16 Video View Forsythe, Logan TB Estrada, Marco TOR 1 Rogers Centr... PL 371 97.3 31.0 69.9 91 0 1 1 369 21
08/10/16 Video View Smoak, Justin TOR Garton, Ryan TB 7 Rogers Centr... PL 394 100.1 30.5 75.5 99 0 3 1 391 28
08/12/16 Video View Saunders, Michael TOR Musgrove, Joe HOU 4 Rogers Centr... JE 403 101.3 27.8 100.3 90 0 1 1 402 26
08/14/16 Video View Martin, Russell TOR Fiers, Mike HOU 5 Rogers Centr... JE 403 101.3 27.1 80.9 87 0 1 1 402 26
08/26/16 Video View Plouffe, Trevor MIN Liriano, Francisco TOR 1 Rogers Centr... JE 409 112.9 19.3 100.4 54 0 0 1 408 23
08/26/16 Video View Smoak, Justin TOR Dean, Pat MIN 2 Rogers Centr... PL 407 102.1 32.3 100.9 119 0 2 1 404 30
08/26/16 Video View Barney, Darwin TOR Albers, Andrew MIN 6 Rogers Centr... PL 358 96.4 35.1 112.2 110 -3 2 1 357 12
08/28/16 Video View Donaldson, Josh TOR Gibson, Kyle MIN 3 Rogers Centr... ND 405 106.1 31.2 119.1 100 -1 2 1 402 30
08/28/16 Video View Donaldson, Josh TOR Light, Pat MIN 7 Rogers Centr... PL 424 103.5 30.3 95.0 115 0 2 1 421 29
09/09/16 Video View Bogaerts, Xander BOS Feldman, Scott TOR 7 Rogers Centr... ND 386 102.7 33.9 118.8 110 0 2 1 383 30
09/09/16 Video View Ramirez, Hanley BOS Feldman, Scott TOR 7 Rogers Centr... JE 405 101.7 26.6 81.4 85 0 1 1 404 25
09/10/16 Video View Pedroia, Dustin BOS Happ, J.A. TOR 6 Rogers Centr... PL 374 103.3 27.3 124.1 71 0 0 1 373 30
09/11/16 Video View Encarnacion, Edwin TOR Hembree, Heath BOS 4 Rogers Centr... ND 427 111.1 29.3 119.4 97 0 1 1 425 30
09/11/16 Video View Ramirez, Hanley BOS Biagini, Joe TOR 5 Rogers Centr... ND 467 112.8 22.9 89.3 89 0 1 1 466 30
09/11/16 Video View Ortiz, David BOS Benoit, Joaquin TOR 6 Rogers Centr... PL 391 101.5 30.7 69.0 98 0 1 1 390 30
09/12/16 Video View Bautista, Jose TOR Odorizzi, Jake TB 6 Rogers Centr... JE 340 93.5 35.6 117.9 100 1 0 1 338 5
09/12/16 Video View Miller, Brad TB Liriano, Francisco TOR 7 Rogers Centr... JE 414 101.3 31.6 91.7 118 4 0 1 409 16
09/12/16 Video View Longoria, Evan TB Liriano, Francisco TOR 7 Rogers Centr... PL 373 108.4 23.2 125.5 56 0 0 1 373 30
09/12/16 Video View Carrera, Ezequiel TOR Boxberger, Brad TB 8 Rogers Centr... JE/L 335 93.9 38.7 119.7 114 6 0 1 329 3
09/13/16 Video View Ramirez, Alexei TB Stroman, Marcus TOR 5 Rogers Centr... PL 370 98.0 34.6 110.3 113 1 1 1 367 20
09/13/16 Video View Martin, Russell TOR Smyly, Drew TB 6 Rogers Centr... ND 387 104.9 36.6 117.1 135 4 2 1 380 30
09/13/16 Video View Souza Jr., Steven TB Biagini, Joe TOR 7 Rogers Centr... PL 399 101.3 31.7 104.0 111 0 1 1 397 30
09/14/16 Video View Dickerson, Corey TB Dermody, Matt TOR 6 Rogers Centr... PL 431 106.5 23.6 90.8 82 0 0 1 431 27
09/23/16 Video View Donaldson, Josh TOR Heller, Ben NYY 8 Rogers Centr... ND 387 102.5 31.7 117.3 99 0 0 1 386 30
09/24/16 Video View Bautista, Jose TOR Clippard, Tyler NYY 8 Rogers Centr... ND 405 111.6 23.4 116.3 64 0 0 1 404 30
09/25/16 Video View Bautista, Jose TOR Pineda, Michael NYY 4 Rogers Centr... PL 404 104.5 27.8 109.3 88 0 0 1 404 30
04/12/16 Video View McCann, Brian NYY Sanchez, Aaron TOR 6 Rogers Centr... PL 411 108.0 24.2 72.8 73 0 0 0 410 30
04/13/16 Video View Teixeira, Mark NYY Storen, Drew TOR 8 Rogers Centr... PL 357 99.0 29.0 55.5 73 0 0 0 356 29
04/14/16 Video View Donaldson, Josh TOR Eovaldi, Nathan NYY 5 Rogers Centr... PL 445 107.8 25.3 92.1 95 0 0 0 444 30
04/08/16 Video View Holt, Brock BOS Chavez, Jesse TOR 6 Rogers Centr... JE 347 103.1 23.4 54.3 52 0 0 0 347 14
04/09/16 Video View Bautista, Jose TOR Porcello, Rick BOS 3 Rogers Centr... PL 418 107.2 24.8 103.8 79 0 0 0 418 30
04/23/16 Video View Donaldson, Josh TOR Bassitt, Chris OAK 2 Rogers Centr... JE 413 101.8 27.1 89.6 93 0 0 0 413 21
04/23/16 Video View Tulowitzki, Troy TOR Hendriks, Liam OAK 7 Rogers Centr... JE 420 105.7 22.9 85.8 74 0 0 0 419 23
04/24/16 Video View Davis, Khris OAK Hutchison, Drew TOR 2 Rogers Centr... JE 418 103.6 26.5 83.6 91 0 0 0 418 26
04/24/16 Video View Carrera, Ezequiel TOR Surkamp, Eric OAK 3 Rogers Centr... PL 419 103.1 28.7 83.5 104 0 -1 0 418 27
04/24/16 Video View Bautista, Jose TOR Surkamp, Eric OAK 4 Rogers Centr... PL 400 107.6 22.8 106.2 64 0 0 0 399 30
04/24/16 Video View Reddick, Josh OAK Hutchison, Drew TOR 6 Rogers Centr... PL 409 110.7 21.5 75.2 61 0 0 0 409 29
04/25/16 Video View Saunders, Michael TOR Gonzalez, Miguel CHW 3 Rogers Centr... PL 426 104.5 26.4 94.3 94 0 -1 0 426 28
04/26/16 Video View Garcia, Avisail CHW Dickey, R.A. TOR 3 Rogers Centr... PL 449 112.4 21.4 95.0 75 0 0 0 449 30
04/26/16 Video View Navarro, Dioner CHW Dickey, R.A. TOR 7 Rogers Centr... JE 357 96.6 29.4 65.1 77 0 0 0 356 15
04/26/16 Video View Encarnacion, Edwin TOR Sale, Chris CHW 7 Rogers Centr... ND 451 108.9 25.4 92.8 97 0 0 0 451 30
04/26/16 Video View Eaton, Adam CHW Storen, Drew TOR 9 Rogers Centr... PL 426 106.2 25.2 81.5 86 0 0 0 426 30
05/02/16 Video View Mazara, Nomar TEX Floyd, Gavin TOR 8 Rogers Centr... JE 417 103.7 24.4 91.8 81 0 0 0 417 21
05/03/16 Video View Smoak, Justin TOR Klein, Phil TEX 10 Rogers Centr... PL 365 98.5 29.8 116.7 82 0 0 0 365 24
05/16/16 Video View Casali, Curt TB Antolin, Dustin TOR 3 Rogers Centr... JE 341 94.5 31.1 122.0 77 0 0 0 341 7
05/17/16 Video View Bautista, Jose TOR Archer, Chris TB 1 Rogers Centr... JE 416 102.9 25.4 90.4 86 0 0 0 416 22
05/18/16 Video View Paredes, Jimmy TOR Odorizzi, Jake TB 2 Rogers Centr... PL 377 100.7 27.2 111.9 75 0 0 0 377 26
05/18/16 Video View Encarnacion, Edwin TOR Ramirez, Erasmo TB 8 Rogers Centr... PL 437 106.3 27.6 95.1 105 0 -1 0 437 30
05/27/16 Video View Donaldson, Josh TOR Kelly, Joe BOS 1 Rogers Centr... JE 400 102.6 25.9 77.6 80 0 0 0 400 26
05/28/16 Video View Bogaerts, Xander BOS Stroman, Marcus TOR 4 Rogers Centr... JE 401 104.5 23.3 100.2 69 0 0 0 401 21
05/28/16 Video View Martin, Russell TOR Porcello, Rick BOS 6 Rogers Centr... PL 356 97.7 28.9 60.4 73 0 1 0 355 21
05/28/16 Video View Ortiz, David BOS Floyd, Gavin TOR 9 Rogers Centr... ND 400 106.2 26.6 64.9 77 0 1 0 398 30
05/29/16 Video View Encarnacion, Edwin TOR Hembree, Heath BOS 8 Rogers Centr... ND 423 117.8 22.9 123.4 64 0 0 0 422 30
05/30/16 Video View Goins, Ryan TOR Nova, Ivan NYY 5 Rogers Centr... PL 375 99.6 28.8 113.3 80 0 1 0 374 28
05/30/16 Video View McCann, Brian NYY Loup, Aaron TOR 9 Rogers Centr... PL 441 107.1 25.4 92.0 93 0 0 0 441 30
05/31/16 Video View Smoak, Justin TOR Sabathia, CC NYY 4 Rogers Centr... JE 411 101.7 27.6 96.0 94 0 0 0 410 23
06/09/16 Video View Davis, Chris BAL Loup, Aaron TOR 7 Rogers Centr... JE 404 110.7 20.5 102.6 57 0 0 0 404 28
06/10/16 Video View Encarnacion, Edwin TOR Brach, Brad BAL 10 Rogers Centr... PL 370 100.2 27.2 65.8 72 0 0 0 369 22
06/11/16 Video View Saunders, Michael TOR Duensing, Brian BAL 8 Rogers Centr... PL 363 97.8 29.9 117.5 80 0 2 0 361 21
06/12/16 Video View Jones, Adam BAL Sanchez, Aaron TOR 5 Rogers Centr... ND 450 109.0 25.6 94.5 98 0 -1 0 450 30
06/12/16 Video View Davis, Chris BAL Sanchez, Aaron TOR 5 Rogers Centr... PL 398 101.0 30.0 102.8 101 -1 -1 0 399 30
06/12/16 Video View Martin, Russell TOR Givens, Mychal BAL 6 Rogers Centr... ND 452 113.7 20.4 93.5 72 0 0 0 452 30
06/13/16 Video View Herrera, Odubel PHI Dickey, R.A. TOR 3 Rogers Centr... JE 358 110.3 20.5 52.6 45 0 0 0 358 25
06/13/16 Video View Howard, Ryan PHI Dickey, R.A. TOR 7 Rogers Centr... PL 363 97.7 30.0 64.6 83 0 -1 0 363 25
06/14/16 Video View Pillar, Kevin TOR Eflin, Zach PHI 2 Rogers Centr... ND 392 105.1 29.0 120.3 85 0 -1 0 393 30
06/14/16 Video View Donaldson, Josh TOR Eflin, Zach PHI 3 Rogers Centr... ND 410 110.3 27.1 123.0 80 0 -1 0 410 30
06/14/16 Video View Hernandez, Cesar PHI Stroman, Marcus TOR 7 Rogers Centr... PL 409 105.5 25.1 76.3 78 0 -1 0 409 29
06/14/16 Video View Encarnacion, Edwin TOR Murray, Colton PHI 7 Rogers Centr... PL 419 103.1 27.8 95.3 99 0 -1 0 419 27
06/30/16 Video View Donaldson, Josh TOR Carrasco, Carlos CLE 4 Rogers Centr... PL 449 107.6 26.7 89.2 103 1 1 0 447 30
07/01/16 Video View Smoak, Justin TOR Tomlin, Josh CLE 6 Rogers Centr... PL 408 102.4 31.8 99.9 119 0 0 0 408 30
07/01/16 Video View Santana, Carlos CLE Barney, Darwin TOR 19 Rogers Centr... JE 418 108.6 21.2 82.9 65 0 0 0 418 27
07/02/16 Video View Tulowitzki, Troy TOR Morimando, Shawn CLE 5 Rogers Centr... JE 383 110.5 21.2 113.8 53 0 0 0 383 24
07/03/16 Video View Martin, Russell TOR Kluber, Corey CLE 1 Rogers Centr... JE 420 105.1 23.3 87.1 76 0 0 0 419 26
07/05/16 Video View Carrera, Ezequiel TOR Young, Chris KC 3 Rogers Centr... JE 421 111.9 19.7 82.5 59 0 0 0 421 26
07/05/16 Video View Donaldson, Josh TOR Young, Chris KC 3 Rogers Centr... ND 466 114.7 23.1 98.7 85 0 1 0 464 30
07/05/16 Video View Cuthbert, Cheslor KC Dickey, R.A. TOR 4 Rogers Centr... ND 409 109.2 24.4 112.2 71 0 1 0 408 30
07/06/16 Video View Saunders, Michael TOR Kennedy, Ian KC 4 Rogers Centr... PL 374 98.2 30.6 68.8 90 0 1 0 372 24
07/06/16 Video View Eibner, Brett KC Stroman, Marcus TOR 8 Rogers Centr... JE 390 108.6 22.0 109.7 58 0 0 0 389 30
07/07/16 Video View Castellanos, Nick DET Hutchison, Drew TOR 4 Rogers Centr... PL 440 107.9 24.8 96.0 88 0 1 0 439 30
07/23/16 Video View Cruz, Nelson SEA Dickey, R.A. TOR 3 Rogers Centr... PL 432 108.6 21.5 88.3 71 0 1 0 431 27
07/23/16 Video View Cruz, Nelson SEA Storen, Drew TOR 8 Rogers Centr... ND 414 111.9 22.8 111.0 65 0 2 0 412 30
07/23/16 Video View Smoak, Justin TOR LeBlanc, Wade SEA 8 Rogers Centr... PL 372 102.4 26.0 117.9 66 0 2 0 370 26
07/24/16 Video View Encarnacion, Edwin TOR Miley, Wade SEA 4 Rogers Centr... JE 430 111.0 19.9 86.6 64 0 0 0 431 25
07/26/16 Video View Donaldson, Josh TOR Cashner, Andrew SD 1 Rogers Centr... JE 413 104.3 22.9 92.1 73 0 0 0 413 16
07/26/16 Video View Kemp, Matt SD Chavez, Jesse TOR 12 Rogers Centr... PL 410 104.1 25.2 100.5 80 0 0 0 409 30
07/27/16 Video View Rosales, Adam SD Dickey, R.A. TOR 3 Rogers Centr... PL 421 106.4 24.4 100.3 79 0 1 0 420 30
07/27/16 Video View Dickerson, Alex SD Morales, Franklin TOR 8 Rogers Centr... JE 371 100.7 26.2 66.9 68 0 1 0 369 20
07/30/16 Video View Travis, Devon TOR Gallardo, Yovani BAL 5 Rogers Centr... JE 412 110.1 20.3 98.9 60 0 0 0 412 24
08/08/16 Video View Forsythe, Logan TB Osuna, Roberto TOR 9 Rogers Centr... PL 403 105.4 25.5 107.7 76 0 1 0 402 30
08/10/16 Video View Tulowitzki, Troy TOR Snell, Blake TB 1 Rogers Centr... JE 357 104.6 23.4 124.4 53 0 1 0 356 15
08/12/16 Video View Hernandez, Teoscar HOU Liriano, Francisco TOR 6 Rogers Centr... ND 395 104.5 27.7 115.1 81 0 1 0 394 30
08/12/16 Video View Encarnacion, Edwin TOR Harris, Will HOU 9 Rogers Centr... ND 410 112.3 25.1 123.7 70 0 0 0 409 30
08/13/16 Video View Donaldson, Josh TOR McHugh, Collin HOU 1 Rogers Centr... PL 429 105.0 28.1 96.8 104 0 -1 0 428 30
08/13/16 Video View Martin, Russell TOR Hoyt, James HOU 6 Rogers Centr... JE 422 105.7 22.8 90.9 75 0 0 0 422 26
08/14/16 Video View Tulowitzki, Troy TOR Fiers, Mike HOU 5 Rogers Centr... PL 421 107.8 24.4 102.9 78 0 0 0 421 30
08/14/16 Video View Castro, Jason HOU Stroman, Marcus TOR 7 Rogers Centr... JE 420 106.7 22.4 84.8 72 0 0 0 420 23
08/14/16 Video View Encarnacion, Edwin TOR Gregerson, Luke HOU 7 Rogers Centr... ND 407 111.0 24.9 120.5 70 0 1 0 406 30
08/23/16 Video View Buss, Nick LAA Dickey, R.A. TOR 2 Rogers Centr... PL 407 107.6 24.2 72.0 71 0 0 0 407 30
08/23/16 Video View Saunders, Michael TOR Achter, A.J. LAA 8 Rogers Centr... ND 412 114.5 23.8 56.3 66 0 0 0 412 30
08/24/16 Video View Trout, Mike LAA Estrada, Marco TOR 1 Rogers Centr... ND 407 108.0 25.0 111.7 73 0 1 0 406 30
08/24/16 Video View Pujols, Albert LAA Estrada, Marco TOR 1 Rogers Centr... JE 401 106.3 23.0 103.4 66 0 0 0 401 29
08/25/16 Video View Donaldson, Josh TOR Weaver, Jered LAA 5 Rogers Centr... ND 456 112.6 21.3 91.7 78 0 0 0 456 30
08/26/16 Video View Donaldson, Josh TOR Dean, Pat MIN 2 Rogers Centr... PL 417 106.4 24.1 79.2 76 0 1 0 416 29
08/26/16 Video View Martin, Russell TOR O'Rourke, Ryan MIN 7 Rogers Centr... PL 426 115.6 19.8 102.0 59 0 0 0 426 30
08/27/16 Video View Encarnacion, Edwin TOR Santana, Ervin MIN 6 Rogers Centr... JE 422 112.2 19.8 97.9 60 0 0 0 422 28
08/27/16 Video View Plouffe, Trevor MIN Schultz, Bo TOR 7 Rogers Centr... JE 360 100.2 26.0 63.2 64 0 0 0 360 16
08/28/16 Video View Tulowitzki, Troy TOR Gibson, Kyle MIN 6 Rogers Centr... JE 414 103.0 24.5 91.2 80 0 0 0 413 17
08/28/16 Video View Donaldson, Josh TOR Wimmers, Alex MIN 8 Rogers Centr... PL 438 109.4 21.5 89.5 73 0 0 0 438 28
09/10/16 Video View Upton Jr., Melvin TOR Rodriguez, Eduardo BOS 2 Rogers Centr... PL 410 108.2 23.0 104.2 68 0 0 0 410 30
09/11/16 Video View Encarnacion, Edwin TOR Buchholz, Clay BOS 1 Rogers Centr... JE 400 104.4 24.2 103.0 71 0 0 0 400 28
09/11/16 Video View Bradley Jr., Jackie BOS Sanchez, Aaron TOR 2 Rogers Centr... PL 413 102.9 29.0 100.4 102 -1 0 0 412 30
09/11/16 Video View Tulowitzki, Troy TOR Buchholz, Clay BOS 3 Rogers Centr... ND 408 110.4 23.3 111.4 66 0 0 0 407 30
09/14/16 Video View Kiermaier, Kevin TB Estrada, Marco TOR 4 Rogers Centr... JE 358 97.9 27.6 64.8 70 0 0 0 358 13
09/25/16 Video View Gregorius, Didi NYY Estrada, Marco TOR 7 Rogers Centr... JE 398 100.5 29.3 78.6 98 0 -1 0 398 26


About HitTracker | Contact Us
© 2006-2016 HitTrackerOnline